Location: Unspecified
(43.2460°N, 0.0000°E)
Time: 07:00:42
(UTC+00:00)

ACS3 Solar Sail - Visible Passes

Search period start: 05 April 2026 00:00
Search period end: 15 April 2026 00:00
Orbit: 874 x 980 km, 97.2° (Epoch: 29 March)

Date Brightness Start Highest point End Pass type
(mag) Time Alt. Az. Time Alt. Az. Time Alt. Az.
5 Apr 3.9 00:11:29 10° NE 00:13:21 17° NE 00:13:21 17° NE visible
5 Apr 2.6 01:52:58 10° N 01:56:57 42° NNW 01:56:57 42° NNW visible
6 Apr 3.7 00:21:14 10° NE 00:23:41 20° NE 00:23:41 20° NE visible
6 Apr 2.6 02:03:09 10° N 02:07:17 40° NNW 02:07:17 40° NNW visible
7 Apr 3.5 00:31:03 10° NNE 00:33:58 24° NE 00:33:58 24° NE visible
7 Apr 2.7 02:13:19 10° N 02:17:34 36° NW 02:17:34 36° NW visible
8 Apr 3.3 00:40:51 10° NNE 00:44:11 29° NE 00:44:11 29° NE visible
8 Apr 2.8 02:23:28 10° N 02:27:47 32° NW 02:27:47 32° NW visible
9 Apr 3.0 00:50:39 10° NNE 00:54:21 35° NE 00:54:21 35° NE visible
9 Apr 3.0 02:33:36 10° N 02:37:57 28° NW 02:37:57 28° NW visible
10 Apr 2.8 01:00:26 10° NNE 01:04:28 41° NE 01:04:28 41° NE visible
10 Apr 3.1 02:43:44 10° NNW 02:48:03 24° WNW 02:48:03 24° WNW visible
11 Apr 2.5 01:10:12 10° NNE 01:14:31 48° NNE 01:14:31 48° NNE visible
11 Apr 3.3 02:53:52 10° NNW 02:58:03 20° WNW 02:58:05 20° WNW visible
11 Apr 4.2 23:40:09 10° ENE 23:40:56 11° ENE 23:40:56 11° ENE visible
12 Apr 2.3 01:19:56 10° NNE 01:24:30 54° NNE 01:24:30 54° NNE visible
12 Apr 3.5 03:04:01 10° NNW 03:07:39 17° WNW 03:08:04 17° WNW visible
12 Apr 4.0 23:49:03 10° NE 23:50:52 14° ENE 23:50:52 14° ENE visible
13 Apr 2.2 01:29:40 10° N 01:34:26 57° N 01:34:26 57° N visible
13 Apr 3.6 03:14:17 10° NNW 03:17:11 14° WNW 03:18:00 14° WNW visible
13 Apr 3.8 23:58:10 10° NE 00:00:45 18° ENE 00:00:45 18° ENE visible
14 Apr 2.2 01:39:21 10° N 01:44:18 56° NNW 01:44:18 56° NNW visible
14 Apr 3.8 03:24:49 10° NW 03:26:39 11° NW 03:27:52 11° WNW visible
